Hourly Weather Otumba de Gomez Farias

Today, 28 July, Wednesday

Time Temperature Precipitation Wind Pressure Humidity
00:00 +12°C° 0 mm 1 mps 572 mmHg 90%
01:00 +12°C° 0 mm 1 mps 571 mmHg 89%
02:00 +12°C° 0 mm 1 mps 571 mmHg 89%
03:00 +11°C° 0 mm 1 mps 571 mmHg 88%
04:00 +11°C° 0 mm 1 mps 571 mmHg 87%
05:00 +11°C° 0 mm 1 mps 571 mmHg 86%
06:00 +13°C° 0.1 mm 1 mps 572 mmHg 78%
07:00 +15°C° 0.1 mm 1 mps 573 mmHg 70%
08:00 +18°C° 0.1 mm 1 mps 574 mmHg 62%
09:00 +19°C° 0.1 mm 1 mps 574 mmHg 55%
10:00 +20°C° 0.1 mm 2 mps 575 mmHg 49%
11:00 +23°C° 0.1 mm 2 mps 575 mmHg 42%
12:00 +24°C° 0 mm 3 mps 575 mmHg 40%
13:00 +24°C° 0 mm 3 mps 574 mmHg 38%
14:00 +25°C° 0 mm 4 mps 574 mmHg 36%
15:00 +22°C° 0.1 mm 4 mps 573 mmHg 44%
16:00 +21°C° 0.1 mm 4 mps 573 mmHg 52%
17:00 +19°C° 0.1 mm 4 mps 572 mmHg 59%
18:00 +18°C° 0.1 mm 4 mps 572 mmHg 67%
19:00 +16°C° 0.1 mm 3 mps 572 mmHg 75%
20:00 +14°C° 0.1 mm 3 mps 572 mmHg 83%
21:00 +14°C° 0 mm 2 mps 572 mmHg 84%
22:00 +14°C° 0 mm 2 mps 572 mmHg 85%
23:00 +14°C° 0 mm 2 mps 572 mmHg 87%

Tomorrow, 29 July, Thursday

Time Temperature Precipitation Wind Pressure Humidity
00:00 +13°C° 0 mm 1 mps 572 mmHg 87%
01:00 +13°C° 0 mm 1 mps 571 mmHg 87%
02:00 +13°C° 0 mm 1 mps 571 mmHg 87%
03:00 +13°C° 0 mm 1 mps 571 mmHg 87%
04:00 +13°C° 0 mm 1 mps 571 mmHg 87%
05:00 +12°C° 0 mm 1 mps 571 mmHg 87%
06:00 +14°C° 0 mm 1 mps 572 mmHg 81%
07:00 +15°C° 0 mm 1 mps 573 mmHg 75%
08:00 +18°C° 0 mm 1 mps 573 mmHg 69%
09:00 +19°C° 0 mm 2 mps 574 mmHg 61%
10:00 +21°C° 0 mm 2 mps 574 mmHg 53%
11:00 +22°C° 0 mm 3 mps 575 mmHg 45%
12:00 +23°C° 0 mm 4 mps 574 mmHg 44%
13:00 +23°C° 0 mm 4 mps 574 mmHg 44%
14:00 +23°C° 0 mm 5 mps 573 mmHg 44%
15:00 +21°C° 0.1 mm 5 mps 573 mmHg 51%
16:00 +20°C° 0.1 mm 5 mps 572 mmHg 58%
17:00 +19°C° 0.1 mm 6 mps 572 mmHg 66%
18:00 +16°C° 0.1 mm 5 mps 572 mmHg 73%
19:00 +14°C° 0.1 mm 4 mps 572 mmHg 79%
20:00 +13°C° 0.1 mm 3 mps 572 mmHg 86%
21:00 +13°C° 0 mm 2 mps 572 mmHg 87%
22:00 +13°C° 0 mm 2 mps 572 mmHg 87%
23:00 +13°C° 0 mm 2 mps 572 mmHg 87%

Day after tomorrow, 30 July, Friday

Time Temperature Precipitation Wind Pressure Humidity
00:00 +12°C° 0 mm 2 mps 572 mmHg 88%
01:00 +12°C° 0 mm 2 mps 571 mmHg 89%
02:00 +11°C° 0 mm 1 mps 571 mmHg 91%
03:00 +11°C° 0 mm 1 mps 571 mmHg 90%
04:00 +11°C° 0 mm 1 mps 571 mmHg 90%
05:00 +11°C° 0 mm 1 mps 571 mmHg 90%
06:00 +12°C° 0 mm 2 mps 572 mmHg 84%
07:00 +14°C° 0 mm 2 mps 573 mmHg 78%
08:00 +16°C° 0 mm 2 mps 574 mmHg 72%
09:00 +17°C° 0 mm 2 mps 574 mmHg 69%
10:00 +18°C° 0 mm 3 mps 574 mmHg 65%
11:00 +19°C° 0 mm 3 mps 574 mmHg 61%
12:00 +20°C° 0.2 mm 3 mps 574 mmHg 60%
13:00 +20°C° 0.2 mm 4 mps 574 mmHg 59%
14:00 +21°C° 0.2 mm 4 mps 573 mmHg 58%
15:00 +20°C° 0.3 mm 4 mps 573 mmHg 63%
16:00 +19°C° 0.3 mm 4 mps 573 mmHg 68%
17:00 +18°C° 0.3 mm 4 mps 573 mmHg 73%
18:00 +15°C° 0.1 mm 4 mps 573 mmHg 78%
19:00 +14°C° 0.1 mm 3 mps 573 mmHg 84%
20:00 +12°C° 0.1 mm 3 mps 573 mmHg 89%
21:00 +13°C° 0 mm 2 mps 573 mmHg 88%
22:00 +13°C° 0 mm 2 mps 573 mmHg 88%
23:00 +13°C° 0 mm 2 mps 573 mmHg 87%

31 July, Saturday

Time Temperature Precipitation Wind Pressure Humidity
00:00 +12°C° 0 mm 1 mps 572 mmHg 87%
01:00 +11°C° 0 mm 1 mps 572 mmHg 88%
02:00 +11°C° 0 mm 1 mps 571 mmHg 88%
03:00 +10°C° 0 mm 1 mps 571 mmHg 87%
04:00 +10°C° 0 mm 1 mps 571 mmHg 85%
05:00 +10°C° 0 mm 1 mps 571 mmHg 84%
06:00 +12°C° 0 mm 1 mps 572 mmHg 74%
07:00 +14°C° 0 mm 1 mps 573 mmHg 64%
08:00 +18°C° 0 mm 1 mps 575 mmHg 54%
09:00 +19°C° 0 mm 1 mps 575 mmHg 48%
10:00 +20°C° 0 mm 2 mps 575 mmHg 42%
11:00 +23°C° 0 mm 2 mps 576 mmHg 36%
12:00 +24°C° 0 mm 3 mps 576 mmHg 37%
13:00 +24°C° 0 mm 3 mps 575 mmHg 38%
14:00 +25°C° 0 mm 3 mps 575 mmHg 38%
15:00 +22°C° 0.2 mm 3 mps 574 mmHg 49%
16:00 +20°C° 0.2 mm 4 mps 574 mmHg 59%
17:00 +18°C° 0.2 mm 4 mps 573 mmHg 69%
18:00 +17°C° 0.3 mm 3 mps 573 mmHg 74%
19:00 +16°C° 0.3 mm 3 mps 573 mmHg 79%
20:00 +15°C° 0.3 mm 2 mps 574 mmHg 84%
21:00 +15°C° 0 mm 2 mps 573 mmHg 86%
22:00 +14°C° 0 mm 2 mps 573 mmHg 88%
23:00 +13°C° 0 mm 1 mps 573 mmHg 90%

1 August, Sunday

Time Temperature Precipitation Wind Pressure Humidity
00:00 +13°C° 0 mm 1 mps 573 mmHg 91%
01:00 +12°C° 0 mm 1 mps 572 mmHg 92%
02:00 +12°C° 0 mm 1 mps 572 mmHg 92%
03:00 +12°C° 0 mm 1 mps 572 mmHg 92%
04:00 +12°C° 0 mm 1 mps 572 mmHg 91%
05:00 +12°C° 0 mm 1 mps 572 mmHg 91%
06:00 +13°C° 0 mm 1 mps 573 mmHg 84%
07:00 +15°C° 0 mm 1 mps 574 mmHg 78%
08:00 +16°C° 0 mm 0 mps 575 mmHg 71%
09:00 +20°C° 0 mm 1 mps 575 mmHg 62%
10:00 +21°C° 0 mm 1 mps 575 mmHg 53%
11:00 +23°C° 0 mm 1 mps 576 mmHg 45%
12:00 +24°C° 0 mm 1 mps 575 mmHg 43%
13:00 +24°C° 0 mm 2 mps 575 mmHg 42%
14:00 +25°C° 0 mm 2 mps 574 mmHg 40%
15:00 +23°C° 0.3 mm 2 mps 574 mmHg 49%
16:00 +21°C° 0.3 mm 2 mps 573 mmHg 58%
17:00 +19°C° 0.3 mm 2 mps 573 mmHg 66%
18:00 +18°C° 0.4 mm 2 mps 573 mmHg 72%
19:00 +16°C° 0.4 mm 2 mps 573 mmHg 78%
20:00 +15°C° 0.4 mm 1 mps 573 mmHg 84%
21:00 +15°C° 0.1 mm 1 mps 573 mmHg 85%
22:00 +14°C° 0.1 mm 1 mps 572 mmHg 86%
23:00 +14°C° 0.1 mm 1 mps 572 mmHg 87%

2 August, Monday

Time Temperature Precipitation Wind Pressure Humidity
00:00 +13°C° 0.1 mm 1 mps 572 mmHg 88%
01:00 +13°C° 0.1 mm 1 mps 571 mmHg 88%
02:00 +12°C° 0.1 mm 0 mps 571 mmHg 89%
03:00 +12°C° 0 mm 1 mps 571 mmHg 88%
04:00 +12°C° 0 mm 1 mps 571 mmHg 88%
05:00 +12°C° 0 mm 1 mps 571 mmHg 87%
06:00 +14°C° 0 mm 1 mps 572 mmHg 81%
07:00 +15°C° 0 mm 0 mps 573 mmHg 75%
08:00 +16°C° 0 mm 0 mps 574 mmHg 69%
09:00 +20°C° 0.4 mm 1 mps 574 mmHg 64%
10:00 +21°C° 0.4 mm 1 mps 574 mmHg 59%
11:00 +21°C° 0.4 mm 2 mps 574 mmHg 54%
12:00 +21°C° 0.4 mm 2 mps 574 mmHg 54%
13:00 +23°C° 0.4 mm 2 mps 573 mmHg 53%
14:00 +22°C° 0.4 mm 3 mps 573 mmHg 53%
15:00 +21°C° 0.5 mm 3 mps 573 mmHg 59%
16:00 +20°C° 0.5 mm 3 mps 572 mmHg 66%
17:00 +19°C° 0.5 mm 3 mps 572 mmHg 72%
18:00 +17°C° 0.5 mm 3 mps 572 mmHg 76%
19:00 +16°C° 0.5 mm 3 mps 572 mmHg 81%
20:00 +15°C° 0.5 mm 2 mps 572 mmHg 86%
21:00 +15°C° 0.1 mm 2 mps 572 mmHg 87%
22:00 +14°C° 0.1 mm 2 mps 572 mmHg 88%
23:00 +14°C° 0.1 mm 2 mps 572 mmHg 89%
Show more